1536627601.18,53404,18.13,74472.5,2.27,-0.53,-1.01,0,*4A
1536627602.38,53405,18.13,74474.8,2.27,-0.49,-0.93,0,*7A
1536627603.6,53406,18.13,74472.8,2.29,-0.37,-0.89,0,*75
1536627604.78,53407,18.13,74478.0,2.27,-0.29,-0.65,0,*77
1536627605.98,53408,18.13,74474.3,2.27,-0.37,-0.89,0,*75
1536627607.19,53409,18.13,74468.8,2.27,-0.37,-0.89,0,*74
1536627608.41,53410,18.13,74464.5,2.29,-0.37,-0.97,0,*7D
1536627609.62,53411,18.13,74470.3,2.27,-0.49,-1.01,0,*45
1536627610.83,53412,18.13,74472.5,2.27,-0.49,-1.01,0,*46
1536627612.04,53413,18.13,74478.8,2.27,-0.53,-1.05,0,*48
1536627613.25,53414,18.13,74478.0,2.27,-0.53,-1.13,0,*48
1536627614.47,53415,18.13,74474.8,2.29,-0.49,-1.13,0,*4C
1536627615.68,53416,18.13,74474.5,2.29,-0.57,-1.25,0,*45
1536627616.89,53417,18.13,74472.8,2.27,-0.65,-1.35,0,*4A
1536627618.1,53418,18.13,74470.8,2.29,-0.69,-1.33,0,*41
1536627619.31,53419,18.13,74470.3,2.27,-0.65,-1.39,0,*48
1536627620.53,53420,18.13,74466.0,2.27,-0.65,-1.39,0,*42
1536627621.74,53421,18.13,74468.5,2.27,-0.65,-1.39,0,*43
1536627622.96,53422,18.13,74474.8,2.27,-0.77,-1.35,0,*4F
1536627624.14,53423,18.13,74474.5,2.27,-0.77,-1.29,0,*43
1536627625.38,53424,18.13,74476.3,2.29,-0.73,-1.35,0,*43
1536627626.6,53425,18.13,74478.0,2.27,-0.73,-1.47,0,*49
1536627627.83,53426,18.13,74476.8,2.29,-0.85,-1.55,0,*4E
1536627629.05,53427,18.13,74480.3,2.27,-1.01,-1.51,0,*78
1536627630.3,53428,18.13,74478.5,2.27,-1.01,-1.39,0,*79
1536627631.53,53429,18.13,74478.0,2.29,-1.01,-1.25,0,*7B
1536627632.79,53430,18.13,74476.3,2.29,-0.85,-1.09,0,*40
1536627634.0,53431,18.13,74476.0,2.27,-0.73,-1.01,0,*4E
1536627635.21,53432,18.13,74468.5,2.27,-0.65,-1.01,0,*4A
1536627636.41,53433,18.13,74470.8,2.27,-0.61,-1.13,0,*4C
1536627637.59,53434,18.13,74474.8,2.27,-0.61,-1.25,0,*4E
1536627638.78,53435,18.13,74478.3,2.27,-0.77,-1.29,0,*44
1536627639.99,53436,18.13,74476.8,2.27,-0.77,-1.35,0,*4A
1536627641.2,53437,18.13,74474.3,2.29,-0.81,-1.33,0,*4A
1536627642.41,53438,18.13,74464.8,2.29,-0.81,-1.33,0,*45
1536627643.65,53439,18.13,74466.8,2.27,-0.85,-1.39,0,*44
1536627644.86,53440,18.13,74470.5,2.27,-0.77,-1.39,0,*47
1536627646.08,53441,18.13,74466.0,2.27,-0.65,-1.35,0,*49
1536627647.29,53442,18.13,74466.3,2.27,-0.73,-1.35,0,*4D
1536627648.51,53443,18.13,74468.8,2.27,-0.77,-1.35,0,*48
1536627649.7,53444,18.13,74474.3,2.27,-0.77,-1.29,0,*42
1536627650.91,53445,18.13,74472.5,2.27,-0.73,-1.05,0,*49
1536627652.12,53446,18.13,74474.0,2.25,-0.61,-0.77,0,*7F
1536627653.32,53447,18.13,74470.0,2.25,-0.53,-0.65,0,*7C
1536627654.53,53448,18.13,74460.5,2.25,-0.53,-0.77,0,*70
1536627655.77,53449,18.13,74464.8,2.25,-0.53,-1.01,0,*41
1536627656.98,53450,18.13,74468.8,2.25,-0.53,-1.17,0,*4E
1536627658.21,53451,18.13,74466.5,2.25,-0.61,-1.35,0,*4E
1536627659.47,53452,18.13,74470.3,2.25,-0.89,-1.39,0,*47
1536627660.74,53453,18.13,74476.5,2.25,-0.85,-1.39,0,*4A
1536627661.95,53454,18.13,74472.8,2.27,-0.93,-1.29,0,*49
1536627663.2,53455,18.13,74472.5,2.25,-0.89,-1.13,0,*48
1536627664.43,53456,18.13,74470.0,2.25,-0.65,-0.93,0,*70
1536627665.67,53457,18.13,74468.5,2.25,-0.65,-1.01,0,*4B
1536627666.9,53458,18.13,74474.0,2.25,-0.53,-1.01,0,*41
1536627668.11,53459,18.13,74478.0,2.27,-0.61,-1.05,0,*47
1536627669.34,53460,18.13,74478.5,2.25,-0.61,-1.05,0,*4F
1536627670.56,53461,18.13,74474.8,2.25,-0.61,-0.89,0,*7B
1536627671.77,53462,18.13,74478.3,2.25,-0.53,-0.65,0,*7B
1536627672.98,53463,18.13,74476.5,2.25,-0.41,-0.53,0,*7C
1536627674.19,53464,18.13,74472.5,2.25,-0.41,-0.49,0,*70
1536627675.4,53465,18.13,74478.0,2.25,-0.37,-0.41,0,*78
1536627676.62,53466,18.13,74474.5,2.25,-0.37,-0.37,0,*7A
1536627677.82,53467,18.13,74470.0,2.25,-0.29,-0.29,0,*7B
1536627679.02,53468,18.13,74472.5,2.25,-0.37,-0.29,0,*7B
1536627680.25,53469,18.13,74476.0,2.25,-0.27,-0.29,0,*7B
1536627681.48,53470,18.13,74470.5,2.25,-0.27,-0.37,0,*7C
1536627682.69,53471,18.13,74472.8,2.25,-0.37,-0.37,0,*7C
1536627683.91,53472,18.13,74472.0,2.25,-0.41,-0.41,0,*7F
1536627685.13,53473,18.13,74474.3,2.25,-0.41,-0.37,0,*7F
1536627686.33,53474,18.13,74476.8,2.25,-0.37,-0.29,0,*76
1536627687.51,53475,18.13,74478.8,2.27,-0.29,-0.29,0,*7A
1536627688.68,53476,18.13,74474.8,2.27,-0.29,-0.29,0,*79
1536627689.91,53477,18.13,74476.0,2.25,-0.27,-0.29,0,*74
1536627691.12,53478,18.13,74464.5,2.23,-0.27,-0.33,0,*76
1536627692.33,53479,18.13,74478.8,2.25,-0.15,-0.19,0,*78
1536627693.53,53480,18.13,74472.5,2.25,-0.15,-0.03,0,*45
1536627694.73,53481,18.13,74470.8,2.25,-0.15,0.01,0,*6B
1536627695.92,53482,18.13,74468.3,2.25,-0.07,0.01,0,*5B
1536627697.11,53483,18.13,74466.8,2.25,-0.07,0.01,0,*5A
1536627698.28,53484,18.13,74470.8,2.27,-0.07,0.09,0,*57
1536627699.5,53485,18.13,74472.0,2.25,-0.07,0.13,0,*6F
1536627700.72,53486,18.13,74474.3,2.25,-0.15,0.25,0,*5A
1536627701.91,53487,18.13,74474.5,2.27,0.01,0.47,0,*45
1536627703.1,53488,18.13,74470.8,2.27,0.01,0.47,0,*4A
1536627704.31,53489,18.13,74474.8,2.27,0.13,0.55,0,*7B
1536627705.53,53490,18.13,74474.5,2.25,0.21,0.43,0,*77
1536627706.77,53491,18.13,74478.0,2.29,0.17,0.51,0,*7C
1536627707.99,53492,18.13,74468.5,2.27,0.25,0.47,0,*77
1536627709.18,53493,18.13,74462.5,2.27,0.25,0.43,0,*72
1536627710.38,53494,18.13,74458.5,2.27,0.25,0.43,0,*75
1536627711.59,53495,18.13,74460.3,2.27,0.37,0.47,0,*73
1536627712.81,53496,18.13,74466.8,2.27,0.33,0.37,0,*73
1536627714.03,53497,18.13,74478.5,2.27,0.25,0.37,0,*75
1536627715.24,53498,18.13,74470.5,2.27,0.37,0.47,0,*7E
1536627716.43,53499,18.13,74456.8,2.27,0.33,0.43,0,*7F
1536627717.62,53500,18.13,74450.3,2.27,0.33,0.43,0,*7E
1536627718.81,53501,18.13,74448.0,2.27,0.43,0.47,0,*7C
1536627720.03,53502,18.13,74436.8,2.27,0.37,0.47,0,*7C
1536627721.25,53503,18.13,74464.5,2.27,0.47,0.55,0,*79
1536627722.48,53504,18.13,74452.5,2.27,0.55,0.55,0,*7D
1536627723.67,53505,18.13,74450.8,2.27,0.43,0.47,0,*78
1536627724.88,53506,18.13,74460.3,2.27,0.33,0.33,0,*7F
1536627726.07,53507,18.13,74464.5,2.27,0.37,0.43,0,*7D
1536627727.29,53508,18.13,74464.8,2.27,0.37,0.47,0,*76
1536627728.48,53509,18.13,74464.3,2.27,0.37,0.43,0,*73
1536627729.72,53510,18.13,74468.0,2.29,0.41,0.47,0,*70
1536627730.96,53511,18.13,74476.3,2.25,0.37,0.47,0,*7C
1536627732.21,53512,18.13,74474.5,2.25,0.47,0.47,0,*78
1536627733.44,53513,18.13,74468.3,2.25,0.37,0.33,0,*7D
1536627734.68,53514,18.13,74470.0,2.25,0.33,0.33,0,*7E
1536627735.92,53515,18.13,74474.5,2.25,0.25,0.21,0,*7B
1536627737.14,53516,18.13,74470.8,2.27,0.21,0.13,0,*7F
1536627738.35,53517,18.13,74468.5,2.25,0.21,0.09,0,*47
1536627739.57,53518,18.13,74462.0,2.23,0.21,0.21,0,*74
1536627740.81,53519,18.13,74470.5,2.25,0.33,0.37,0,*77
1536627742.05,53520,18.13,74468.8,2.25,0.37,0.47,0,*7E
1536627743.3,53521,18.13,74470.3,2.25,0.55,0.47,0,*7B
1536627744.55,53522,18.13,74470.0,2.25,0.55,0.55,0,*7B
1536627745.8,53523,18.13,74468.8,2.25,0.59,0.47,0,*75
1536627747.01,53524,18.13,74470.5,2.25,0.47,0.43,0,*79
1536627748.23,53525,18.13,74466.0,2.25,0.59,0.43,0,*77
1536627749.44,53526,18.13,74472.8,2.25,0.43,0.37,0,*7C
1536627750.65,53527,18.13,74474.3,2.25,0.43,0.25,0,*7E
1536627751.89,53528,18.13,74472.8,2.25,0.33,0.21,0,*72
1536627753.1,53529,18.13,74472.0,2.25,0.43,0.13,0,*75
1536627754.32,53530,18.13,74470.3,2.25,0.21,-0.03,0,*65
1536627755.51,53531,18.13,74470.8,2.23,0.17,-0.03,0,*67
1536627756.73,53532,18.13,74474.3,2.25,0.21,0.01,0,*48
1536627757.94,53533,18.13,74476.0,2.25,0.13,0.01,0,*48
1536627759.15,53534,18.13,74474.3,2.25,0.13,-0.07,0,*64
1536627760.38,53535,18.13,74478.3,2.25,0.21,-0.15,0,*57
1536627761.62,53536,18.13,74480.0,2.25,0.13,-0.27,0,*54
1536627762.8,53537,18.13,74480.0,2.23,-0.03,-0.45,0,*4B
1536627764.01,53538,18.13,74478.8,2.25,-0.03,-0.49,0,*4E
1536627765.22,53539,18.13,74480.3,2.25,-0.19,-0.49,0,*74
1536627766.43,53540,18.13,74482.5,2.25,-0.19,-0.29,0,*7C
1536627767.66,53541,18.13,74482.0,2.25,-0.19,-0.27,0,*73
1536627768.87,53542,18.13,74482.0,2.25,-0.19,-0.37,0,*71
1536627770.06,53543,18.13,74478.8,2.23,-0.19,-0.37,0,*76
1536627771.26,53544,18.13,74476.0,2.25,-0.19,-0.61,0,*74
1536627772.49,53545,18.13,74474.8,2.25,-0.27,-0.61,0,*78
1536627773.72,53546,18.13,74478.8,2.25,-0.37,-1.01,0,*4D
1536627774.94,53547,18.13,74476.3,2.25,-0.65,-1.29,0,*41
1536627776.18,53548,18.13,74476.5,2.25,-1.01,-1.29,0,*7D
1536627777.45,53549,18.13,74470.0,2.25,-1.05,-1.01,0,*72
1536627778.68,53550,18.13,74486.8,2.25,-0.85,-0.53,0,*75
1536627779.88,53551,18.13,74482.8,2.25,-0.53,-0.29,0,*72
1536627781.12,53552,18.13,74470.5,2.25,-0.27,-0.19,0,*71
1536627782.33,53553,18.13,74464.5,2.25,-0.03,-0.15,0,*4A
1536627783.51,53554,18.13,74468.3,2.23,-0.11,-0.41,0,*79
1536627784.74,53555,18.13,74464.8,2.25,-0.07,-0.27,0,*49
1536627785.94,53556,18.13,74468.0,2.23,-0.07,-0.23,0,*48
1536627787.16,53557,18.13,74472.5,2.23,-0.23,-0.23,0,*7F
1536627788.37,53558,18.13,74476.3,2.25,-0.15,-0.19,0,*7A
1536627789.58,53559,18.13,74472.3,2.25,-0.07,-0.19,0,*48
1536627790.75,53560,18.13,74462.0,2.23,-0.19,-0.65,0,*70
1536627791.99,53561,18.13,74460.8,2.25,-0.37,-1.01,0,*48
1536627793.22,53562,18.13,74464.0,2.25,-0.61,-1.13,0,*4B
1536627794.4,53563,18.13,74470.5,2.23,-0.81,-1.29,0,*4B
1536627795.64,53564,18.13,74472.0,2.25,-1.05,-1.25,0,*7B
1536627796.89,53565,18.13,74468.5,2.25,-1.05,-1.29,0,*76
1536627798.16,53566,18.13,74468.3,2.25,-1.05,-1.05,0,*7B
1536627799.42,53567,18.13,74470.8,2.25,-0.93,-1.05,0,*44
1536627800.64,53568,18.13,74472.0,2.23,-0.93,-0.93,0,*73
1536627801.87,53569,18.13,74470.8,2.23,-0.89,-0.97,0,*7D
1536627803.1,53570,18.13,74468.0,2.25,-0.77,-0.93,0,*76
1536627804.32,53571,18.13,74470.3,2.25,-0.65,-0.89,0,*7F
1536627805.53,53572,18.13,74478.8,2.23,-0.69,-0.93,0,*7D
1536627806.73,53573,18.13,74472.5,2.25,-0.61,-0.81,0,*71
1536627807.93,53574,18.13,74476.3,2.25,-0.53,-0.65,0,*7D
1536627809.12,53575,18.13,74476.5,2.23,-0.41,-0.45,0,*7B
1536627810.3,53576,18.13,74470.8,2.23,-0.19,-0.45,0,*75
1536627811.48,53577,18.13,74474.5,2.23,-0.07,-0.41,0,*4F
1536627812.66,53578,18.13,74470.0,2.23,-0.03,-0.41,0,*44
1536627813.85,53579,18.13,74470.8,2.23,-0.03,-0.41,0,*45
1536627815.06,53580,18.13,74468.3,2.25,-0.15,-0.41,0,*72
1536627816.24,53581,18.13,74464.5,2.23,-0.41,-0.65,0,*72
1536627817.42,53582,18.13,74470.5,2.23,-0.65,-0.69,0,*7B
1536627818.6,53583,18.13,74464.8,2.23,-0.65,-0.77,0,*75
1536627819.78,53584,18.13,74466.3,2.23,-0.69,-0.69,0,*71
1536627820.96,53585,18.13,74474.5,2.23,-0.69,-0.57,0,*7D
1536627822.15,53586,18.13,74474.3,2.23,-0.53,-0.33,0,*75
1536627823.35,53587,18.13,74466.8,2.25,-0.29,-0.19,0,*77
1536627824.55,53588,18.13,74468.3,2.25,-0.29,-0.03,0,*43
1536627825.77,53589,18.13,74470.3,2.25,-0.15,0.13,0,*51
1536627826.97,53590,18.13,74470.3,2.23,0.09,0.51,0,*49
1536627828.18,53591,18.13,74468.5,2.23,0.51,0.83,0,*7A
1536627829.39,53592,18.13,74470.8,2.23,0.67,0.83,0,*7C
1536627830.61,53593,18.13,74466.3,2.23,0.83,0.83,0,*77
1536627831.84,53594,18.13,74470.5,2.23,0.83,0.91,0,*73
1536627833.05,53595,18.13,74464.3,2.23,0.83,0.79,0,*74
1536627834.27,53596,18.13,74464.3,2.23,0.95,0.79,0,*70
1536627835.49,53597,18.13,74466.5,2.25,0.97,0.83,0,*70
1536627836.71,53598,18.13,74470.8,2.23,0.95,0.79,0,*7E
1536627837.93,53599,18.13,74468.5,2.23,0.91,0.79,0,*7B
1536627839.16,53600,18.13,74464.5,2.23,0.91,0.83,0,*7D
1536627840.37,53601,18.13,74470.0,2.23,0.83,0.79,0,*7A
1536627841.59,53602,18.13,74468.8,2.23,0.79,0.79,0,*7C
1536627842.81,53603,18.13,74470.0,2.23,0.83,0.83,0,*7D
1536627844.06,53604,18.13,74468.0,2.25,0.87,0.75,0,*71
1536627845.28,53605,18.13,74470.5,2.23,0.79,0.79,0,*7B
1536627846.5,53606,18.13,74470.0,2.23,0.79,0.79,0,*78
1536627847.72,53607,18.13,74470.5,2.23,0.79,0.71,0,*71
1536627848.94,53608,18.13,74468.3,2.23,0.83,0.71,0,*7B
1536627850.18,53609,18.13,74472.3,2.25,0.95,0.83,0,*76
1536627851.43,53610,18.13,74470.5,2.25,0.87,0.83,0,*7D
1536627852.68,53611,18.13,74472.5,2.25,0.87,0.83,0,*7C
1536627853.93,53612,18.13,74470.8,2.25,0.87,0.83,0,*7F
1536627855.15,53613,18.13,74472.3,2.23,0.83,0.71,0,*71
1536627856.37,53614,18.13,74474.0,2.23,0.83,0.79,0,*7E
1536627857.62,53615,18.13,74470.8,2.25,0.87,0.83,0,*78
1536627858.87,53616,18.13,74468.0,2.25,0.87,0.83,0,*7B
1536627860.09,53617,18.13,74470.5,2.23,0.87,0.71,0,*71
1536627861.3,53618,18.13,74468.8,2.23,0.83,0.79,0,*72
1536627862.55,53619,18.13,74468.3,2.25,0.95,0.83,0,*77
1536627863.77,53620,18.13,74468.0,2.23,0.83,0.79,0,*79
1536627864.98,53621,18.13,74470.0,2.23,0.79,0.79,0,*7D
1536627866.23,53622,18.13,74470.3,2.25,0.87,0.83,0,*7C
1536627867.48,53623,18.13,74466.3,2.25,0.87,0.75,0,*74
1536627868.7,53624,18.13,74468.5,2.23,0.83,0.83,0,*78
1536627869.92,53625,18.13,74468.8,2.23,0.83,0.71,0,*74
1536627871.14,53626,18.13,74468.8,2.23,0.79,0.79,0,*7A
1536627872.36,53627,18.13,74468.0,2.23,0.91,0.79,0,*7D
1536627873.59,53628,18.13,74470.0,2.23,0.91,0.79,0,*72
1536627874.8,53629,18.13,74466.8,2.23,0.83,0.79,0,*70
1536627876.02,53630,18.13,74466.0,2.23,0.83,0.71,0,*70
1536627877.27,53631,18.13,74468.3,2.25,0.87,0.71,0,*73
1536627878.49,53632,18.13,74468.5,2.23,0.83,0.71,0,*72
1536627879.7,53633,18.13,74468.5,2.23,0.83,0.63,0,*70
1536627880.94,53634,18.13,74466.8,2.25,0.83,0.67,0,*75
1536627882.19,53635,18.13,74462.0,2.25,0.71,0.59,0,*74
1536627883.41,53636,18.13,74468.3,2.23,0.63,0.55,0,*7E
1536627884.65,53637,18.13,74468.0,2.25,0.67,0.55,0,*7D
1536627885.88,53638,18.13,74472.3,2.25,0.67,0.59,0,*7E
1536627887.1,53639,18.13,74470.5,2.23,0.51,0.29,0,*7B
1536627888.32,53640,18.13,74472.0,2.23,0.51,0.29,0,*75
1536627889.56,53641,18.13,74468.3,2.25,0.47,0.25,0,*79
1536627890.77,53642,18.13,74468.0,2.23,0.41,0.17,0,*7B
1536627892.01,53643,18.13,74472.5,2.25,0.33,0.21,0,*7C
1536627893.25,53644,18.13,74466.5,2.25,0.37,0.25,0,*7B
1536627894.46,53645,18.13,74466.5,2.25,0.33,0.09,0,*40
1536627895.68,53646,18.13,74474.0,2.25,0.25,0.09,0,*44
1536627896.87,53647,18.13,74474.5,2.23,0.17,-0.11,0,*56
1536627898.07,53648,18.13,74462.8,2.23,0.21,-0.19,0,*54
1536627899.27,53649,18.13,74468.8,2.25,0.09,-0.37,0,*65
1536627900.45,53650,18.13,74468.0,2.23,-0.07,-0.53,0,*4A
1536627901.64,53651,18.13,74472.3,2.25,0.01,-0.53,0,*66
1536627902.84,53652,18.13,74474.0,2.25,-0.03,-0.61,0,*4B
1536627904.01,53653,18.13,74472.5,2.23,-0.03,-0.65,0,*48
1536627905.22,53654,18.13,74474.3,2.25,-0.15,-0.73,0,*79
1536627906.4,53655,18.13,74478.0,2.23,-0.19,-0.69,0,*79
1536627907.61,53656,18.13,74480.5,2.25,-0.19,-0.53,0,*75
1536627908.81,53657,18.13,74478.0,2.25,-0.15,-0.29,0,*75
1536627910.02,53658,18.13,74472.8,2.25,-0.07,-0.15,0,*46
1536627911.19,53659,18.13,74482.3,2.23,-0.03,0.09,0,*55
1536627912.4,53660,18.13,74476.5,2.25,0.13,0.43,0,*7B
1536627913.64,53661,18.13,74472.8,2.25,0.37,0.67,0,*7A
1536627914.86,53662,18.13,74472.0,2.23,0.55,0.79,0,*74
1536627916.08,53663,18.13,74470.8,2.23,0.79,0.91,0,*7D
1536627917.3,53664,18.13,74470.0,2.25,0.83,0.97,0,*7F
1536627918.53,53665,18.13,74464.3,2.23,0.91,1.13,0,*46
1536627919.76,53666,18.13,74458.8,2.25,0.91,1.05,0,*44
1536627921.01,53667,18.13,74460.5,2.25,0.95,1.09,0,*4D
1536627922.2,53668,18.13,74460.5,2.23,0.95,1.01,0,*4C
1536627923.39,53669,18.13,74468.3,2.25,0.97,0.97,0,*77
1536627924.59,53670,18.13,74474.3,2.25,1.05,0.97,0,*45
1536627925.8,53671,18.13,74470.0,2.25,1.05,1.05,0,*7E
1536627927.0,53672,18.13,74466.3,2.25,1.05,1.05,0,*7D
1536627928.23,53673,18.13,74464.0,2.25,1.09,0.97,0,*4A
1536627929.46,53674,18.13,74464.5,2.25,1.09,0.97,0,*4D
1536627930.69,53675,18.13,74464.5,2.25,1.05,0.87,0,*41
1536627931.91,53676,18.13,74464.5,2.25,1.09,0.97,0,*4F
1536627933.15,53677,18.13,74464.0,2.25,1.09,1.05,0,*74
1536627934.32,53678,18.13,74460.8,2.23,1.05,0.97,0,*4B
1536627935.55,53679,18.13,74462.0,2.27,1.09,0.95,0,*40
1536627936.77,53680,18.13,74464.8,2.25,0.97,0.87,0,*71
1536627938.0,53681,18.13,74468.3,2.25,1.05,0.83,0,*4E
1536627939.23,53682,18.13,74458.5,2.25,1.05,0.75,0,*44
1536627940.46,53683,18.13,74456.8,2.25,0.97,0.59,0,*71
1536627941.7,53684,18.13,74464.5,2.25,0.95,0.55,0,*78
1536627942.93,53685,18.13,74462.8,2.27,0.87,0.47,0,*7B
1536627944.13,53686,18.13,74462.3,2.27,0.83,0.43,0,*78
1536627945.37,53687,18.13,74468.0,2.25,0.75,0.37,0,*71
1536627946.58,53688,18.13,74468.0,2.25,0.67,0.43,0,*7E
1536627947.78,53689,18.13,74460.0,2.27,0.55,0.43,0,*7C
1536627949.01,53690,18.13,74452.5,2.27,0.55,0.47,0,*70
1536627950.22,53691,18.13,74456.8,2.25,0.43,0.47,0,*74
1536627951.46,53692,18.13,74466.0,2.29,0.41,0.51,0,*7E
1536627952.68,53693,18.13,74464.3,2.25,0.37,0.43,0,*71
1536627953.87,53694,18.13,74464.5,2.27,0.43,0.55,0,*70
1536627955.09,53695,18.13,74466.8,2.25,0.47,0.43,0,*70
1536627956.3,53696,18.13,74460.5,2.23,0.29,0.29,0,*71
1536627957.52,53697,18.13,74460.3,2.23,0.21,0.29,0,*78
1536627958.72,53698,18.13,74466.8,2.23,0.29,0.33,0,*74
1536627959.96,53699,18.13,74466.3,2.25,0.37,0.37,0,*78
1536627961.21,53700,18.13,74464.0,2.25,0.47,0.47,0,*79
1536627962.39,53701,18.13,74464.8,2.23,0.43,0.33,0,*79
1536627963.6,53702,18.13,74466.0,2.23,0.51,0.33,0,*79
1536627964.85,53703,18.13,74468.5,2.25,0.59,0.47,0,*75
1536627966.07,53704,18.13,74464.3,2.27,0.55,0.37,0,*7B
1536627967.31,53705,18.13,74468.0,2.25,0.55,0.33,0,*7C
1536627968.56,53706,18.13,74468.3,2.25,0.59,0.47,0,*70
1536627969.8,53707,18.13,74470.0,2.25,0.59,0.55,0,*72
1536627971.01,53708,18.13,74470.5,2.23,0.67,0.55,0,*76
1536627972.25,53709,18.13,74466.5,2.25,0.67,0.67,0,*70
1536627973.49,53710,18.13,74464.8,2.25,0.83,0.83,0,*78
1536627974.74,53711,18.13,74464.0,2.25,0.87,0.75,0,*74
1536627975.98,53712,18.13,74470.3,2.25,0.83,0.67,0,*70
1536627977.23,53713,18.13,74464.8,2.25,0.83,0.71,0,*76
1536627978.48,53714,18.13,74466.3,2.25,0.83,0.59,0,*7B
1536627979.72,53715,18.13,74466.8,2.25,0.83,0.55,0,*76
1536627980.97,53716,18.13,74464.8,2.25,0.75,0.55,0,*7C
1536627982.22,53717,18.13,74466.8,2.25,0.71,0.47,0,*7A
1536627983.43,53718,18.13,74466.3,2.25,0.71,0.43,0,*71
1536627984.62,53719,18.13,74464.8,2.23,0.67,0.43,0,*71
1536627985.87,53720,18.13,74468.0,2.25,0.71,0.47,0,*7E
1536627987.08,53721,18.13,74464.3,2.25,0.75,0.43,0,*7F
1536627988.27,53722,18.13,74466.0,2.27,0.67,0.43,0,*7D
1536627989.46,53723,18.13,74466.0,2.27,0.67,0.43,0,*7C
1536627990.68,53724,18.13,74466.0,2.27,0.59,0.37,0,*75
1536627991.87,53725,18.13,74462.3,2.23,0.63,0.43,0,*7A
1536627993.08,53726,18.13,74464.5,2.23,0.55,0.41,0,*7E
1536627994.3,53727,18.13,74472.0,2.23,0.51,0.33,0,*7E
1536627995.53,53728,18.13,74468.0,2.25,0.67,0.37,0,*76
1536627996.74,53729,18.13,74464.5,2.27,0.67,0.13,0,*73
1536627997.96,53730,18.13,74458.8,2.25,0.59,0.09,0,*4F
1536627999.18,53731,18.13,74456.5,2.25,0.55,0.01,0,*4A
1536628000.4,53732,18.13,74470.0,2.25,0.55,-0.03,0,*66
1536628001.62,53733,18.13,74462.3,2.25,0.47,-0.03,0,*64
1536628002.82,53734,18.13,74462.8,2.25,0.43,-0.15,0,*50
1536628004.01,53735,18.13,74464.5,2.25,0.43,-0.07,0,*62
1536628005.23,53736,18.13,74470.0,2.23,0.33,-0.23,0,*56
1536628006.47,53737,18.13,74472.5,2.25,0.33,-0.27,0,*55
1536628007.67,53738,18.13,74474.8,2.23,0.29,-0.45,0,*53
1536628008.9,53739,18.13,74470.0,2.25,0.25,-0.41,0,*5C
1536628010.12,53740,18.13,74474.0,2.25,0.21,-0.37,0,*57
1536628011.35,53741,18.13,74468.0,2.25,0.13,-0.49,0,*5E
1536628012.59,53742,18.13,74466.5,2.25,0.25,-0.23,0,*54
1536628013.82,53743,18.13,74464.5,2.25,0.25,-0.19,0,*5C
1536628015.02,53744,18.13,74466.0,2.23,0.29,-0.11,0,*59
1536628016.24,53745,18.13,74466.3,2.25,0.37,-0.03,0,*62
1536628017.45,53746,18.13,74466.5,2.25,0.37,-0.03,0,*61
1536628018.66,53747,18.13,74468.0,2.25,0.33,0.01,0,*4B
1536628019.88,53748,18.13,74468.8,2.25,0.37,-0.03,0,*6F
1536628021.1,53749,18.13,74472.5,2.25,0.21,-0.03,0,*69
1536628022.29,53750,18.13,74474.3,2.23,0.21,-0.03,0,*67
1536628023.5,53751,18.13,74476.5,2.25,0.37,0.01,0,*48
1536628024.71,53752,18.13,74474.3,2.25,0.37,0.01,0,*4B
1536628025.93,53753,18.13,74472.8,2.25,0.47,0.01,0,*4D
1536628027.12,53754,18.13,74472.8,2.23,0.29,-0.03,0,*6B
1536628028.37,53755,18.13,74470.8,2.25,0.47,0.21,0,*79
1536628029.55,53756,18.13,74468.0,2.23,0.43,0.17,0,*7D
1536628030.79,53757,18.13,74478.0,2.25,0.59,0.33,0,*77
1536628032.02,53758,18.13,74476.0,2.25,0.67,0.33,0,*75
1536628033.25,53759,18.13,74468.5,2.27,0.55,0.21,0,*74
1536628034.49,53760,18.13,74478.0,2.25,0.59,0.21,0,*70
1536628035.73,53761,18.13,74472.3,2.25,0.63,0.17,0,*7D
1536628036.98,53762,18.13,74470.3,2.25,0.71,0.21,0,*78
1536628038.18,53763,18.13,74468.0,2.23,0.63,0.33,0,*7F
1536628039.39,53764,18.13,74470.8,2.23,0.63,0.33,0,*78
1536628040.63,53765,18.13,74468.0,2.25,0.59,0.37,0,*72
1536628041.88,53766,18.13,74470.0,2.25,0.59,0.37,0,*71
1536628043.09,53767,18.13,74472.5,2.23,0.55,0.29,0,*75
1536628044.31,53768,18.13,74472.0,2.23,0.51,0.29,0,*7E
1536628045.55,53769,18.13,74474.5,2.25,0.55,0.25,0,*71
1536628046.8,53770,18.13,74470.5,2.25,0.55,0.13,0,*7C
1536628047.98,53771,18.13,74472.3,2.25,0.43,0.09,0,*41
1536628049.14,53772,18.13,74472.5,2.23,0.43,0.05,0,*48
1536628050.31,53773,18.13,74474.5,2.23,0.43,-0.03,0,*62
1536628051.5,53774,18.13,74476.0,2.23,0.41,-0.03,0,*67
1536628052.7,53775,18.13,74470.5,2.25,0.43,-0.15,0,*55
1536628053.91,53776,18.13,74474.0,2.23,0.41,-0.23,0,*57
1536628055.11,53777,18.13,74478.3,2.23,0.29,-0.33,0,*59
1536628056.32,53778,18.13,74476.3,2.23,0.21,-0.41,0,*5B
1536628057.52,53779,18.13,74468.5,2.23,0.21,-0.33,0,*5F
1536628058.74,53780,18.13,74474.5,2.23,0.21,-0.23,0,*58
1536628059.93,53781,18.13,74476.8,2.23,0.21,-0.19,0,*50
1536628061.13,53782,18.13,74472.8,2.23,0.29,-0.29,0,*58
1536628062.32,53783,18.13,74464.0,2.23,0.29,-0.65,0,*51
1536628063.54,53784,18.13,74470.0,2.23,0.17,-1.09,0,*60
1536628064.73,53785,18.13,74468.8,2.23,0.09,-1.13,0,*55
1536628065.92,53786,18.13,74472.5,2.23,-0.11,-1.17,0,*46
1536628067.14,53787,18.13,74476.0,2.25,-0.29,-0.89,0,*7C
1536628068.34,53788,18.13,74472.5,2.23,-0.23,-0.57,0,*7C
1536628069.53,53789,18.13,74478.5,2.23,-0.11,-0.33,0,*7E
1536628070.71,53790,18.13,74474.5,2.23,-0.03,-0.19,0,*4D
1536628071.88,53791,18.13,74468.8,2.23,0.09,-0.19,0,*6B
1536628073.06,53792,18.13,74468.3,2.23,0.05,-0.33,0,*6C
1536628074.23,53793,18.13,74474.5,2.23,0.05,-0.57,0,*6F
1536628075.41,53794,18.13,74478.3,2.23,-0.03,-0.77,0,*41
1536628076.61,53795,18.13,74476.5,2.23,-0.29,-1.05,0,*4C
1536628077.84,53796,18.13,74476.3,2.25,-0.41,-0.93,0,*79
1536628079.05,53797,18.13,74476.3,2.25,-0.41,-0.53,0,*74
1536628080.23,53798,18.13,74472.5,2.23,-0.33,-0.29,0,*75
1536628081.41,53799,18.13,74472.8,2.23,-0.11,-0.11,0,*7F
1536628082.61,53800,18.13,74472.3,2.23,-0.07,-0.23,0,*46
1536628083.81,53801,18.13,74468.0,2.23,-0.23,-0.53,0,*76
1536628085.0,53802,18.13,74472.3,2.23,-0.41,-0.69,0,*78
1536628086.2,53803,18.13,74472.3,2.23,-0.65,-0.97,0,*7E
1536628087.4,53804,18.13,74474.3,2.23,-0.77,-1.09,0,*4C
1536628088.61,53805,18.13,74478.5,2.23,-0.81,-0.97,0,*72
1536628089.79,53806,18.13,74478.0,2.23,-0.81,-0.81,0,*76
1536628090.97,53807,18.13,74474.3,2.23,-0.65,-0.57,0,*76
1536628092.19,53808,18.13,74472.5,2.21,-0.41,-0.33,0,*7F
1536628093.4,53809,18.13,74470.5,2.25,-0.19,-0.19,0,*7F
1536628094.6,53810,18.13,74468.8,2.21,0.05,-0.19,0,*63
1536628095.77,53811,18.13,74474.0,2.23,0.05,-0.07,0,*5F
1536628096.94,53812,18.13,74466.8,2.23,0.05,-0.03,0,*58
1536628098.11,53813,18.13,74464.0,2.23,0.05,-0.03,0,*59
1536628099.3,53814,18.13,74464.8,2.23,0.29,0.09,0,*47
1536628100.51,53815,18.13,74472.0,2.23,0.33,0.21,0,*77
1536628101.69,53816,18.13,74466.5,2.23,0.43,0.33,0,*70
1536628102.94,53817,18.13,74464.0,2.25,0.47,0.21,0,*70
1536628104.13,53818,18.13,74462.8,2.23,0.41,0.05,0,*49
1536628105.32,53819,18.13,74464.0,2.23,0.21,0.05,0,*4E
1536628106.48,53820,18.13,74474.3,2.23,0.05,0.09,0,*7E
1536628107.7,53821,18.13,74470.3,2.23,0.21,0.21,0,*73
1536628108.91,53822,18.13,74466.3,2.23,0.21,0.17,0,*75
1536628110.1,53823,18.13,74466.5,2.23,0.21,0.05,0,*47
1536628111.29,53824,18.13,74466.3,2.23,0.21,0.05,0,*40
1536628112.48,53825,18.13,74474.0,2.23,0.21,0.05,0,*41
1536628113.69,53826,18.13,74466.3,2.23,0.21,-0.11,0,*5A
1536628114.88,53827,18.13,74462.8,2.23,0.33,-0.11,0,*58
1536628116.08,53828,18.13,74466.5,2.23,0.33,-0.41,0,*52
1536628117.31,53829,18.13,74470.0,2.21,0.17,-0.45,0,*53
1536628118.51,53830,18.13,74468.3,2.21,-0.03,-0.45,0,*43
1536628119.72,53831,18.13,74466.0,2.21,-0.07,-0.33,0,*47
1536628120.93,53832,18.13,74462.8,2.21,-0.07,-0.11,0,*44
1536628122.13,53833,18.13,74464.0,2.21,-0.07,-0.03,0,*76